Regional Weather Roundup
Issued by NWS Cleveland, OH

Home | Current Version | Previous Version | Graphics & Text | Print | Product List | Glossary On
Versions: 1 2 3 4 5 6 7 8 9 10 11 12 13 14 15 16 17 18 19 20 21 22 23 24 25 26 27 28 29 30 31 32 33 34 35 36 37 38 39 40 41 42 43 44 45 46 47 48 49 50
000
ASUS41 KCLE 240000
RWRCLE
OHIO REGIONAL WEATHER ROUNDUP
NATIONAL WEATHER SERVICE WILMINGTON, OH
800 PM EDT WED AUG 23 2017

NOTE: "FAIR" INDICATES FEW OR NO CLOUDS BELOW 12,000 FEET WITH NO
SIGNIFICANT WEATHER AND/OR OBSTRUCTIONS TO VISIBILITY.

OHZ001>008-015>018-024>027-034-035-043-044-240100-
   NORTHWEST OHIO

CITY           SKY/WX    TMP DP  RH WIND       PRES   REMARKS
DEFIANCE       FAIR      69  51  52 NW13      29.98R
FINDLAY        FAIR      71  53  52 NW6       29.96S
TOLEDO EXPRESS FAIR      71  53  52 W7        29.96R
TOLEDO EXEC    FAIR      71  51  49 W8        29.96R
LIMA           FAIR      70  53  54 NW6       29.98S
$$

OHZ009>014-019>023-028>033-038-089-240100-
   NORTHEAST OHIO

CITY           SKY/WX    TMP DP  RH WIND       PRES   REMARKS
CLE-HOPKINS    MOCLDY    73  53  49 NW6       29.97R
CLE-LAKEFRONT  MOCLDY    72  55  55 W10       29.94S
CUY CO. ARPT   PTCLDY    72  55  56 NW9       29.96S
LORAIN-ELYRIA  CLOUDY    67  58  72 SW3       29.96S
ASHTABULA      MOCLDY    66  57  72 W5        29.96S
AKRON-CANTON   FAIR      68  53  58 NW5       29.97R
WOOSTER        NOT AVBL
MANSFIELD      CLOUDY    69  55  60 CALM      29.98R
YOUNGSTOWN     MOCLDY    68  52  56 NW6       29.96R
$$

OHZ042-051>053-060>062-070>072-077>081-240100-
  SOUTHWEST OHIO

CITY           SKY/WX    TMP DP  RH WIND       PRES   REMARKS
CINC-COVINGTON FAIR      74  52  46 N8        29.99S
CINC-LUNKEN    FAIR      75  53  46 N9        29.98S
HAMILTON       FAIR      74  52  46 NW7       29.99S
DAYTON         NOT AVBL
WRIGHT-PAT AFB NOT AVBL
DAYTON GENERAL FAIR      73  50  44 NW6       29.98F
WILMINGTON     FAIR      72  53  51 NW6       29.98F
$$

OHZ036-037-039>041-045>050-054>059-063>069-073>076-082>088-240100-
  CENTRAL AND SOUTHEAST OHIO

CITY           SKY/WX    TMP DP  RH WIND       PRES   REMARKS
COLUMBUS       FAIR      73  52  47 NW7       29.96F
OSU AIRPORT    FAIR      69  55  60 W6        29.97S
BOLTON FIELD   NOT AVBL
RICKENBACK AFB NOT AVBL
NEWARK         FAIR      69  57  65 CALM      29.96F
MARION         MOCLDY    70  54  56 NW5       29.98S
LANCASTER      FAIR      71  54  54 CALM      29.98S
ZANESVILLE     FAIR      71  55  56 CALM      29.97S
NEW PHILLY     FAIR      68  61  78 CALM      29.97S
$$



USA.gov is the U.S. government's official web portal to all federal, state and local government web resources and services.